{"data":{"norad_id":63693,"epoch":"2026-09-21T21:36:23.044608Z","epoch_age_seconds":86698,"freshness":"FRESH","line1":"1 63693U 25086G   26264.90026672 -.00000062  00000+0 -17807-3 0  9995","line2":"2 63693  86.5010 280.6491 0001787  70.7881 289.3447 13.24410700 67667","mean_motion":13.244107,"eccentricity":0.0001787,"inclination_deg":86.501,"raan_deg":280.6491,"arg_perigee_deg":70.7881,"mean_anomaly_deg":289.3447,"bstar":-0.00017807,"rev_number":6766,"period_min":108.72760239705,"perigee_km":1166.5710464111,"apogee_km":1169.2680070137,"semimajor_km":7546.0565267124,"source":"CELESTRAK","updated_at":"2026-09-22T09:00:29.283258Z"}}